| time (UTC) | temp F | wind direction | speed MPH | gust MPH | rain 1hr in | rain 24hr in | rain mn in | humidity % | barometer mb |
| 20260506223940 | 46 | 0 | 6.0 | 12.0 | 0.00 | 0.53 | 0.44 | 58 | 1018.4 |
| 20260506223711 | 46 | 168 | 5.0 | 12.0 | 0.00 | 0.53 | 0.44 | 62 | 1018.4 |
| 20260506222940 | 46 | 0 | 5.0 | 11.0 | 0.00 | 0.54 | 0.44 | 57 | 1018.4 |
| 20260506222713 | 47 | 0 | 5.0 | 11.0 | 0.00 | 0.54 | 0.44 | 59 | 1018.6 |
| 20260506221937 | 46 | 0 | 6.0 | 13.0 | 0.00 | 0.55 | 0.44 | 61 | 1018.7 |
| 20260506221438 | 46 | 161 | 6.0 | 13.0 | 0.00 | 0.55 | 0.44 | 61 | 1018.6 |
| 20260506220938 | 46 | 167 | 5.0 | 12.0 | 0.00 | 0.55 | 0.44 | 60 | 1018.6 |
| 20260506220437 | 45 | 207 | 4.0 | 8.0 | 0.00 | 0.56 | 0.44 | 64 | 1018.7 |
| 20260506215937 | 44 | 150 | 4.0 | 8.0 | 0.00 | 0.56 | 0.44 | 61 | 1018.8 |
| 20260506215438 | 44 | 190 | 4.0 | 9.0 | 0.00 | 0.57 | 0.44 | 63 | 1018.9 |
| 20260506214936 | 44 | 191 | 5.0 | 9.0 | 0.00 | 0.58 | 0.44 | 63 | 1019.0 |
| 20260506214436 | 44 | 188 | 4.0 | 9.0 | 0.00 | 0.58 | 0.44 | 65 | 1019.1 |
| 20260506213935 | 44 | 166 | 4.0 | 9.0 | 0.00 | 0.58 | 0.44 | 60 | 1019.3 |
| 20260506213435 | 44 | 163 | 5.0 | 10.0 | 0.00 | 0.59 | 0.44 | 60 | 1019.3 |
| 20260506212936 | 45 | 150 | 4.0 | 10.0 | 0.00 | 0.59 | 0.44 | 61 | 1019.4 |
| 20260506212435 | 45 | 0 | 5.0 | 10.0 | 0.00 | 0.60 | 0.44 | 62 | 1019.4 |
| 20260506211935 | 44 | 0 | 5.0 | 10.0 | 0.00 | 0.60 | 0.44 | 67 | 1019.5 |
| 20260506211435 | 44 | 194 | 4.0 | 10.0 | 0.00 | 0.61 | 0.44 | 62 | 1019.5 |
| 20260506210935 | 44 | 186 | 4.0 | 9.0 | 0.00 | 0.61 | 0.44 | 68 | 1019.6 |
| 20260506210436 | 43 | 0 | 4.0 | 9.0 | 0.00 | 0.62 | 0.44 | 66 | 1019.6 |
| 20260506205934 | 42 | 0 | 3.0 | 6.0 | 0.00 | 0.63 | 0.44 | 65 | 1019.6 |
| 20260506205435 | 43 | 0 | 4.0 | 11.0 | 0.00 | 0.63 | 0.44 | 63 | 1019.7 |
| 20260506204933 | 43 | 0 | 6.0 | 11.0 | 0.00 | 0.64 | 0.44 | 63 | 1019.9 |
| 20260506204433 | 43 | 0 | 5.0 | 11.0 | 0.01 | 0.64 | 0.44 | 66 | 1019.9 |
| 20260506203934 | 43 | 182 | 4.0 | 10.0 | 0.01 | 0.65 | 0.44 | 63 | 1019.9 |
| 20260506203433 | 43 | 0 | 3.0 | 10.0 | 0.01 | 0.65 | 0.44 | 69 | 1020.1 |
| 20260506202934 | 42 | 0 | 2.0 | 5.0 | 0.01 | 0.66 | 0.44 | 67 | 1020.2 |
| 20260506202704 | 41 | 207 | 2.0 | 6.0 | 0.01 | 0.66 | 0.44 | 67 | 1020.1 |
| 20260506201933 | 41 | 207 | 2.0 | 6.0 | 0.01 | 0.67 | 0.44 | 67 | 1020.3 |
| 20260506201431 | 41 | 207 | 2.0 | 5.0 | 0.01 | 0.67 | 0.44 | 68 | 1020.3 |
| 20260506200931 | 41 | 0 | 2.0 | 6.0 | 0.01 | 0.67 | 0.44 | 68 | 1020.3 |
| 20260506200432 | 41 | 0 | 1.0 | 6.0 | 0.01 | 0.68 | 0.44 | 71 | 1020.3 |
| 20260506200203 | 41 | 0 | 1.0 | 3.0 | 0.01 | 0.68 | 0.44 | 71 | 1020.4 |
| 20260506195704 | 41 | 0 | 2.0 | 4.0 | 0.01 | 0.68 | 0.44 | 68 | 1020.4 |
| 20260506194931 | 41 | 0 | 2.0 | 5.0 | 0.01 | 0.69 | 0.44 | 68 | 1020.4 |
| 20260506194708 | 42 | 0 | 2.0 | 6.0 | 0.00 | 0.68 | 0.43 | 69 | 1020.4 |
| 20260506194432 | 41 | 0 | 1.0 | 5.0 | 0.00 | 0.68 | 0.43 | 69 | 1020.4 |
| 20260506193429 | 42 | 0 | 2.0 | 6.0 | 0.00 | 0.68 | 0.43 | 69 | 1020.5 |
| 20260506192931 | 42 | 0 | 2.0 | 6.0 | 0.00 | 0.69 | 0.43 | 69 | 1020.5 |
| 20260506192429 | 41 | 0 | 1.0 | 5.0 | 0.00 | 0.69 | 0.43 | 71 | 1020.6 |
| 20260506191931 | 41 | 0 | 0.0 | 2.0 | 0.00 | 0.69 | 0.43 | 68 | 1020.6 |
| 20260506191430 | 42 | 191 | 0.0 | 2.0 | 0.00 | 0.69 | 0.43 | 66 | 1020.5 |
| 20260506191202 | 42 | 191 | 0.0 | 3.0 | 0.01 | 0.69 | 0.43 | 70 | 1020.8 |
| 20260506190429 | 41 | 96 | 0.0 | 3.0 | 0.01 | 0.69 | 0.43 | 69 | 1020.9 |
| 20260506185930 | 41 | 96 | 0.0 | 2.0 | 0.02 | 0.70 | 0.43 | 69 | 1020.9 |
| 20260506185429 | 40 | 97 | 0.0 | 2.0 | 0.02 | 0.70 | 0.43 | 69 | 1020.9 |
| 20260506184929 | 40 | 97 | 1.0 | 3.0 | 0.03 | 0.71 | 0.43 | 68 | 1020.9 |
| 20260506184700 | 40 | 0 | 1.0 | 3.0 | 0.03 | 0.71 | 0.43 | 69 | 1020.9 |
| 20260506183929 | 40 | 97 | 0.0 | 3.0 | 0.04 | 0.72 | 0.43 | 69 | 1021.0 |
| 20260506183427 | 40 | 97 | 1.0 | 6.0 | 0.05 | 0.72 | 0.43 | 69 | 1021.0 |
| 20260506182926 | 40 | 97 | 2.0 | 6.0 | 0.06 | 0.73 | 0.43 | 70 | 1021.0 |
| 20260506182428 | 40 | 97 | 2.0 | 6.0 | 0.08 | 0.73 | 0.43 | 71 | 1021.2 |
| 20260506181926 | 40 | 97 | 2.0 | 5.0 | 0.09 | 0.73 | 0.43 | 74 | 1021.2 |
| 20260506181700 | 39 | 348 | 1.0 | 4.0 | 0.09 | 0.74 | 0.43 | 71 | 1021.2 |
| 20260506180928 | 38 | 338 | 1.0 | 4.0 | 0.09 | 0.73 | 0.42 | 73 | 1021.2 |
| 20260506180427 | 38 | 338 | 2.0 | 5.0 | 0.11 | 0.73 | 0.42 | 74 | 1021.2 |
| 20260506180158 | 38 | 338 | 2.0 | 5.0 | 0.11 | 0.72 | 0.41 | 77 | 1021.2 |
| 20260506175425 | 38 | 336 | 2.0 | 5.0 | 0.12 | 0.73 | 0.41 | 75 | 1021.2 |
| 20260506174925 | 38 | 338 | 1.0 | 4.0 | 0.12 | 0.72 | 0.40 | 74 | 1021.2 |
| 20260506174658 | 38 | 339 | 1.0 | 4.0 | 0.13 | 0.72 | 0.40 | 74 | 1021.2 |
| 20260506174158 | 39 | 339 | 1.0 | 5.0 | 0.13 | 0.71 | 0.39 | 75 | 1021.2 |
| 20260506173430 | 38 | 329 | 1.0 | 5.0 | 0.13 | 0.69 | 0.37 | 78 | 1021.2 |
| 20260506173425 | 39 | 339 | 2.0 | 5.0 | 0.12 | 0.70 | 0.38 | 74 | 1021.2 |
| 20260506172657 | 38 | 0 | 2.0 | 6.0 | 0.12 | 0.67 | 0.36 | 80 | 1021.2 |
| 20260506171925 | 38 | 0 | 2.0 | 6.0 | 0.12 | 0.66 | 0.35 | 79 | 1021.2 |
| 20260506171426 | 38 | 323 | 2.0 | 6.0 | 0.13 | 0.67 | 0.34 | 79 | 1021.2 |
| 20260506170926 | 37 | 323 | 3.0 | 6.0 | 0.12 | 0.65 | 0.33 | 78 | 1021.3 |
| 20260506170424 | 37 | 299 | 4.0 | 7.0 | 0.12 | 0.64 | 0.31 | 80 | 1021.3 |
| 20260506165925 | 37 | 298 | 4.0 | 7.0 | 0.12 | 0.63 | 0.30 | 81 | 1021.3 |
| 20260506165425 | 36 | 306 | 3.0 | 7.0 | 0.12 | 0.62 | 0.29 | 82 | 1021.3 |
| 20260506164924 | 36 | 0 | 3.0 | 7.0 | 0.12 | 0.61 | 0.28 | 82 | 1021.3 |
| 20260506164426 | 36 | 319 | 4.0 | 7.0 | 0.12 | 0.60 | 0.27 | 82 | 1021.2 |
| 20260506163924 | 36 | 0 | 3.0 | 7.0 | 0.12 | 0.60 | 0.27 | 82 | 1021.1 |
| 20260506163424 | 36 | 0 | 3.0 | 6.0 | 0.13 | 0.60 | 0.26 | 84 | 1021.0 |
| 20260506162924 | 36 | 297 | 3.0 | 7.0 | 0.11 | 0.58 | 0.25 | 84 | 1020.9 |
| 20260506162422 | 36 | 297 | 3.0 | 7.0 | 0.11 | 0.57 | 0.23 | 87 | 1020.8 |
| 20260506161923 | 36 | 0 | 3.0 | 7.0 | 0.11 | 0.56 | 0.22 | 87 | 1020.9 |
| 20260506161423 | 35 | 290 | 4.0 | 7.0 | 0.11 | 0.56 | 0.21 | 87 | 1020.9 |
| 20260506161153 | 35 | 292 | 5.0 | 8.0 | 0.10 | 0.55 | 0.20 | 86 | 1020.9 |
| 20260506160421 | 35 | 0 | 5.0 | 8.0 | 0.10 | 0.54 | 0.19 | 87 | 1020.9 |
| 20260506155919 | 35 | 282 | 4.0 | 7.0 | 0.10 | 0.54 | 0.18 | 88 | 1020.8 |
| 20260506155420 | 35 | 0 | 4.0 | 7.0 | 0.09 | 0.53 | 0.17 | 88 | 1020.8 |
| 20260506154921 | 35 | 0 | 3.0 | 7.0 | 0.09 | 0.52 | 0.17 | 89 | 1020.8 |
| 20260506154651 | 35 | 297 | 3.0 | 6.0 | 0.08 | 0.52 | 0.16 | 90 | 1020.8 |
| 20260506153921 | 34 | 0 | 4.0 | 7.0 | 0.07 | 0.52 | 0.15 | 90 | 1020.8 |
| 20260506153420 | 34 | 0 | 4.0 | 7.0 | 0.07 | 0.52 | 0.14 | 91 | 1020.6 |
| 20260506152920 | 34 | 0 | 4.0 | 8.0 | 0.07 | 0.52 | 0.13 | 91 | 1020.5 |
| 20260506152652 | 33 | 292 | 4.0 | 8.0 | 0.06 | 0.52 | 0.12 | 91 | 1020.6 |
| 20260506151919 | 33 | 292 | 4.0 | 7.0 | 0.05 | 0.52 | 0.11 | 92 | 1020.5 |
| 20260506151421 | 33 | 0 | 5.0 | 8.0 | 0.05 | 0.52 | 0.10 | 92 | 1020.5 |
| 20260506151156 | 33 | 339 | 5.0 | 8.0 | 0.04 | 0.52 | 0.09 | 92 | 1020.5 |
| 20260506150919 | 33 | 339 | 5.0 | 8.0 | 0.05 | 0.52 | 0.10 | 92 | 1020.5 |
| 20260506145919 | 32 | 339 | 5.0 | 9.0 | 0.03 | 0.52 | 0.08 | 92 | 1020.4 |
| 20260506145421 | 32 | 339 | 6.0 | 9.0 | 0.03 | 0.52 | 0.08 | 92 | 1020.5 |
| 20260506144921 | 32 | 339 | 5.0 | 9.0 | 0.02 | 0.52 | 0.07 | 93 | 1020.5 |
| 20260506144421 | 32 | 0 | 5.0 | 9.0 | 0.02 | 0.53 | 0.07 | 92 | 1020.4 |
| 20260506144151 | 32 | 346 | 5.0 | 8.0 | 0.03 | 0.54 | 0.07 | 93 | 1020.4 |
| 20260506143421 | 32 | 346 | 4.0 | 8.0 | 0.02 | 0.53 | 0.06 | 93 | 1020.5 |
| 20260506143151 | 32 | 348 | 3.0 | 7.0 | 0.02 | 0.54 | 0.06 | 93 | 1020.4 |
| 20260506142422 | 32 | 0 | 1.0 | 5.0 | 0.02 | 0.55 | 0.06 | 93 | 1020.3 |
| 20260506141921 | 31 | 5 | 1.0 | 5.0 | 0.02 | 0.56 | 0.06 | 93 | 1020.3 |
| 20260506141420 | 31 | 5 | 2.0 | 4.0 | 0.01 | 0.55 | 0.05 | 93 | 1020.2 |
| 20260506140921 | 31 | 5 | 1.0 | 4.0 | 0.01 | 0.55 | 0.05 | 93 | 1020.2 |
| 20260506140650 | 31 | 5 | 0.0 | 2.0 | 0.01 | 0.55 | 0.05 | 93 | 1020.3 |
| 20260506135921 | 31 | 5 | 0.0 | 4.0 | 0.01 | 0.55 | 0.05 | 93 | 1020.3 |
| 20260506135421 | 31 | 5 | 0.0 | 4.0 | 0.01 | 0.55 | 0.05 | 93 | 1020.3 |
| 20260506135152 | 31 | 5 | 0.0 | 0.0 | 0.01 | 0.55 | 0.05 | 93 | 1020.2 |
| 20260506134419 | 31 | 5 | 0.0 | 4.0 | 0.01 | 0.55 | 0.05 | 93 | 1020.1 |
| 20260506133922 | 31 | 5 | 0.0 | 4.0 | 0.00 | 0.54 | 0.04 | 93 | 1020.1 |
| 20260506133419 | 31 | 5 | 0.0 | 5.0 | 0.00 | 0.54 | 0.04 | 93 | 1020.1 |
| 20260506132922 | 31 | 5 | 1.0 | 5.0 | 0.00 | 0.55 | 0.04 | 93 | 1019.9 |
| 20260506132651 | 31 | 5 | 1.0 | 4.0 | 0.00 | 0.55 | 0.04 | 93 | 1019.9 |
| 20260506132152 | 31 | 5 | 0.0 | 0.0 | 0.00 | 0.55 | 0.04 | 93 | 1019.7 |
| 20260506131419 | 31 | 5 | 0.0 | 0.0 | 0.00 | 0.55 | 0.04 | 93 | 1019.6 |
| 20260506130920 | 31 | 5 | 0.0 | 0.0 | 0.00 | 0.56 | 0.04 | 93 | 1019.6 |
| 20260506130420 | 31 | 5 | 0.0 | 0.0 | 0.00 | 0.56 | 0.04 | 93 | 1019.5 |
| 20260506125920 | 31 | 5 | 0.0 | 2.0 | 0.00 | 0.56 | 0.04 | 93 | 1019.5 |
| 20260506125419 | 31 | 5 | 0.0 | 3.0 | 0.00 | 0.57 | 0.04 | 93 | 1019.4 |
| 20260506125152 | 31 | 5 | 0.0 | 3.0 | 0.00 | 0.57 | 0.04 | 93 | 1019.4 |
| 20260506124420 | 31 | 5 | 0.0 | 0.0 | 0.01 | 0.58 | 0.04 | 93 | 1019.3 |
| 20260506123920 | 31 | 5 | 0.0 | 1.0 | 0.01 | 0.58 | 0.04 | 93 | 1019.3 |
| 20260506123420 | 31 | 5 | 0.0 | 2.0 | 0.01 | 0.59 | 0.04 | 93 | 1019.0 |
| 20260506122921 | 31 | 5 | 0.0 | 2.0 | 0.01 | 0.59 | 0.04 | 93 | 1019.0 |
| 20260506122650 | 31 | 5 | 1.0 | 3.0 | 0.01 | 0.59 | 0.04 | 93 | 1019.0 |
| 20260506121921 | 31 | 5 | 1.0 | 4.0 | 0.01 | 0.60 | 0.04 | 93 | 1018.9 |
| 20260506121420 | 31 | 13 | 1.0 | 4.0 | 0.01 | 0.60 | 0.04 | 93 | 1018.9 |
| 20260506120921 | 31 | 0 | 1.0 | 3.0 | 0.01 | 0.60 | 0.04 | 93 | 1018.9 |
| 20260506120420 | 31 | 15 | 1.0 | 3.0 | 0.01 | 0.61 | 0.04 | 93 | 1018.9 |
| 20260506115921 | 32 | 15 | 1.0 | 4.0 | 0.01 | 0.61 | 0.04 | 93 | 1018.9 |
| 20260506115420 | 32 | 15 | 1.0 | 4.0 | 0.01 | 0.61 | 0.04 | 93 | 1018.8 |
| 20260506114918 | 32 | 15 | 1.0 | 3.0 | 0.01 | 0.62 | 0.04 | 93 | 1018.8 |
| 20260506114650 | 32 | 17 | 1.0 | 3.0 | 0.00 | 0.61 | 0.03 | 93 | 1018.7 |
| 20260506113917 | 32 | 16 | 0.0 | 3.0 | 0.00 | 0.61 | 0.03 | 93 | 1018.6 |
| 20260506113420 | 32 | 17 | 0.0 | 0.0 | 0.00 | 0.61 | 0.03 | 93 | 1018.4 |
| 20260506113149 | 32 | 17 | 0.0 | 0.0 | 0.00 | 0.62 | 0.03 | 94 | 1018.4 |
| 20260506112418 | 32 | 17 | 0.0 | 0.0 | 0.00 | 0.62 | 0.03 | 93 | 1018.3 |
| 20260506111918 | 32 | 17 | 0.0 | 0.0 | 0.00 | 0.62 | 0.03 | 94 | 1018.3 |
| 20260506111418 | 32 | 17 | 0.0 | 0.0 | 0.00 | 0.62 | 0.03 | 94 | 1018.2 |
| 20260506110919 | 32 | 17 | 0.0 | 0.0 | 0.01 | 0.62 | 0.03 | 94 | 1018.2 |
| 20260506110418 | 32 | 17 | 0.0 | 0.0 | 0.01 | 0.62 | 0.03 | 94 | 1018.1 |
| 20260506110151 | 32 | 17 | 0.0 | 0.0 | 0.01 | 0.62 | 0.03 | 94 | 1018.1 |
| 20260506105419 | 32 | 17 | 0.0 | 0.0 | 0.01 | 0.62 | 0.03 | 94 | 1018.1 |
| 20260506104918 | 32 | 17 | 0.0 | 0.0 | 0.01 | 0.62 | 0.03 | 94 | 1018.0 |
| 20260506104417 | 32 | 17 | 0.0 | 0.0 | 0.01 | 0.63 | 0.03 | 94 | 1018.0 |
| 20260506104143 | 32 | 17 | 0.0 | 0.0 | 0.01 | 0.63 | 0.03 | 94 | 1018.0 |
| 20260506103413 | 32 | 17 | 0.0 | 0.0 | 0.01 | 0.64 | 0.03 | 94 | 1018.0 |
| 20260506102913 | 32 | 17 | 0.0 | 2.0 | 0.01 | 0.65 | 0.03 | 94 | 1018.1 |
| 20260506102412 | 32 | 17 | 0.0 | 2.0 | 0.01 | 0.66 | 0.03 | 94 | 1018.0 |
| 20260506101912 | 32 | 17 | 0.0 | 2.0 | 0.01 | 0.67 | 0.03 | 94 | 1018.0 |
| 20260506101644 | 32 | 17 | 0.0 | 2.0 | 0.01 | 0.68 | 0.03 | 94 | 1017.9 |
| 20260506100913 | 32 | 17 | 0.0 | 0.0 | 0.00 | 0.68 | 0.02 | 94 | 1017.9 |
| 20260506100411 | 32 | 17 | 0.0 | 1.0 | 0.00 | 0.68 | 0.02 | 94 | 1017.9 |
| 20260506100142 | 32 | 17 | 0.0 | 1.0 | 0.00 | 0.69 | 0.02 | 94 | 1018.0 |
| 20260506095409 | 32 | 17 | 0.0 | 0.0 | 0.00 | 0.70 | 0.02 | 94 | 1018.2 |
| 20260506094905 | 32 | 17 | 0.0 | 0.0 | 0.00 | 0.70 | 0.02 | 94 | 1018.2 |
| 20260506094404 | 32 | 17 | 0.0 | 0.0 | 0.00 | 0.70 | 0.02 | 94 | 1018.0 |
| 20260506094136 | 32 | 17 | 0.0 | 1.0 | 0.00 | 0.70 | 0.02 | 94 | 1018.0 |
| 20260506093638 | 32 | 17 | 0.0 | 1.0 | 0.00 | 0.71 | 0.02 | 94 | 1018.0 |
| 20260506092903 | 32 | 17 | 0.0 | 0.0 | 0.00 | 0.71 | 0.02 | 94 | 1017.9 |
| 20260506092405 | 32 | 17 | 0.0 | 0.0 | 0.01 | 0.71 | 0.02 | 94 | 1018.0 |
| 20260506091901 | 32 | 17 | 0.0 | 0.0 | 0.01 | 0.72 | 0.02 | 94 | 1017.9 |
| 20260506091357 | 32 | 17 | 0.0 | 0.0 | 0.01 | 0.73 | 0.02 | 94 | 1017.9 |
| 20260506090852 | 32 | 17 | 0.0 | 0.0 | 0.01 | 0.74 | 0.02 | 94 | 1017.9 |
| 20260506090352 | 32 | 17 | 0.0 | 0.0 | 0.01 | 0.75 | 0.02 | 94 | 1018.0 |
| 20260506085850 | 32 | 17 | 0.0 | 0.0 | 0.01 | 0.75 | 0.02 | 93 | 1017.9 |
| 20260506085350 | 32 | 17 | 0.0 | 0.0 | 0.01 | 0.76 | 0.02 | 93 | 1018.0 |
| 20260506084849 | 32 | 17 | 0.0 | 0.0 | 0.01 | 0.77 | 0.02 | 93 | 1017.9 |
| 20260506084350 | 32 | 17 | 0.0 | 0.0 | 0.01 | 0.78 | 0.02 | 93 | 1017.9 |
| 20260506083849 | 32 | 17 | 0.0 | 0.0 | 0.01 | 0.78 | 0.02 | 94 | 1017.9 |
| 20260506083345 | 32 | 17 | 0.0 | 0.0 | 0.01 | 0.79 | 0.02 | 93 | 1018.0 |
| 20260506082845 | 32 | 17 | 0.0 | 0.0 | 0.01 | 0.79 | 0.02 | 93 | 1018.0 |
| 20260506082343 | 32 | 17 | 0.0 | 0.0 | 0.00 | 0.79 | 0.02 | 94 | 1018.1 |
| 20260506082112 | 32 | 17 | 0.0 | 0.0 | 0.00 | 0.79 | 0.01 | 94 | 1018.0 |
| 20260506081341 | 32 | 17 | 0.0 | 0.0 | 0.00 | 0.79 | 0.01 | 94 | 1018.0 |
| 20260506080839 | 32 | 17 | 0.0 | 0.0 | 0.00 | 0.79 | 0.01 | 94 | 1018.0 |
| 20260506080337 | 32 | 17 | 0.0 | 0.0 | 0.00 | 0.79 | 0.01 | 93 | 1018.0 |
| 20260506073333 | 32 | 17 | 0.0 | 0.0 | 0.01 | 0.81 | 0.01 | 93 | 1018.1 |
| 20260506072833 | 32 | 17 | 0.0 | 0.0 | 0.01 | 0.82 | 0.01 | 94 | 1018.0 |
| 20260506072331 | 32 | 17 | 0.0 | 0.0 | 0.01 | 0.82 | 0.01 | 94 | 1018.1 |
| 20260506071831 | 32 | 17 | 0.0 | 0.0 | 0.01 | 0.83 | 0.01 | 94 | 1018.0 |
| 20260506071332 | 32 | 17 | 0.0 | 0.0 | 0.01 | 0.83 | 0.01 | 93 | 1018.1 |
| 20260506070829 | 32 | 17 | 0.0 | 0.0 | 0.01 | 0.84 | 0.01 | 93 | 1018.1 |
| 20260506070328 | 32 | 17 | 0.0 | 0.0 | 0.01 | 0.84 | 0.01 | 93 | 1018.1 |
| 20260506062326 | 32 | 17 | 1.0 | 4.0 | 0.00 | 0.84 | 0.00 | 93 | 1018.1 |
| 20260506061824 | 32 | 15 | 1.0 | 3.0 | 0.00 | 0.85 | 0.00 | 93 | 1018.0 |
| 20260506061323 | 32 | 15 | 0.0 | 3.0 | 0.01 | 0.86 | 0.00 | 93 | 1018.0 |
| 20260506060823 | 32 | 15 | 1.0 | 3.0 | 0.01 | 0.86 | 0.00 | 93 | 1017.9 |
| 20260506060325 | 32 | 15 | 0.0 | 3.0 | 0.01 | 0.86 | 0.00 | 93 | 1018.0 |
| 20260506051321 | 32 | 15 | 0.0 | 2.0 | 0.00 | 0.85 | 0.86 | 93 | 1017.3 |
| 20260506050819 | 32 | 15 | 0.0 | 2.0 | 0.00 | 0.85 | 0.85 | 93 | 1017.3 |
| 20260506050321 | 32 | 15 | 1.0 | 4.0 | 0.00 | 0.85 | 0.85 | 93 | 1017.2 |
| 20260506044819 | 32 | 296 | 0.0 | 3.0 | 0.01 | 0.85 | 0.85 | 93 | 1017.3 |
| 20260506044319 | 32 | 296 | 0.0 | 3.0 | 0.01 | 0.85 | 0.85 | 93 | 1017.2 |
| 20260506043818 | 32 | 297 | 0.0 | 1.0 | 0.01 | 0.85 | 0.85 | 93 | 1017.1 |
| 20260506043318 | 32 | 296 | 0.0 | 1.0 | 0.01 | 0.85 | 0.85 | 93 | 1017.1 |
| 20260506042818 | 33 | 296 | 0.0 | 0.0 | 0.01 | 0.85 | 0.85 | 93 | 1017.1 |
| 20260506042550 | 33 | 296 | 0.0 | 0.0 | 0.01 | 0.85 | 0.85 | 93 | 1017.1 |
| 20260506041818 | 33 | 297 | 0.0 | 0.0 | 0.01 | 0.85 | 0.85 | 93 | 1017.1 |
| 20260506041319 | 33 | 296 | 0.0 | 0.0 | 0.01 | 0.85 | 0.85 | 93 | 1016.9 |
| 20260506040817 | 33 | 297 | 0.0 | 0.0 | 0.01 | 0.85 | 0.85 | 93 | 1016.8 |
| 20260506040318 | 33 | 297 | 0.0 | 0.0 | 0.02 | 0.85 | 0.85 | 93 | 1016.7 |
| 20260506035816 | 33 | 297 | 0.0 | 0.0 | 0.02 | 0.85 | 0.85 | 93 | 1016.7 |
| 20260506035316 | 33 | 297 | 0.0 | 0.0 | 0.01 | 0.84 | 0.84 | 93 | 1016.6 |
| 20260506034815 | 33 | 297 | 0.0 | 0.0 | 0.01 | 0.84 | 0.84 | 93 | 1016.6 |
| 20260506034316 | 33 | 297 | 0.0 | 0.0 | 0.01 | 0.84 | 0.84 | 93 | 1016.6 |
| 20260506033816 | 33 | 297 | 0.0 | 0.0 | 0.02 | 0.84 | 0.84 | 93 | 1016.5 |
| 20260506033315 | 33 | 297 | 0.0 | 2.0 | 0.02 | 0.84 | 0.84 | 93 | 1016.5 |
| 20260506032816 | 33 | 297 | 0.0 | 2.0 | 0.02 | 0.84 | 0.84 | 93 | 1016.5 |
| 20260506032314 | 33 | 297 | 1.0 | 3.0 | 0.02 | 0.84 | 0.84 | 93 | 1016.5 |
| 20260506032045 | 33 | 296 | 1.0 | 3.0 | 0.02 | 0.84 | 0.84 | 93 | 1016.2 |
| 20260506031311 | 33 | 296 | 1.0 | 4.0 | 0.03 | 0.84 | 0.84 | 93 | 1016.4 |
| 20260506030813 | 33 | 297 | 2.0 | 5.0 | 0.03 | 0.84 | 0.84 | 93 | 1016.4 |
| 20260506030312 | 33 | 297 | 3.0 | 6.0 | 0.02 | 0.83 | 0.83 | 93 | 1016.4 |
| 20260506025813 | 33 | 297 | 4.0 | 6.0 | 0.02 | 0.83 | 0.83 | 93 | 1016.2 |
| 20260506025312 | 33 | 0 | 3.0 | 6.0 | 0.03 | 0.83 | 0.83 | 93 | 1016.1 |
| 20260506024811 | 33 | 0 | 3.0 | 5.0 | 0.03 | 0.83 | 0.83 | 93 | 1015.9 |
| 20260506024311 | 33 | 0 | 3.0 | 6.0 | 0.03 | 0.83 | 0.83 | 93 | 1015.7 |
| 20260506023811 | 33 | 0 | 4.0 | 6.0 | 0.02 | 0.82 | 0.82 | 93 | 1015.8 |
| 20260506023312 | 33 | 291 | 3.0 | 5.0 | 0.03 | 0.82 | 0.82 | 93 | 1015.6 |
| 20260506022811 | 33 | 0 | 2.0 | 5.0 | 0.03 | 0.82 | 0.82 | 94 | 1015.6 |
| 20260506022311 | 33 | 291 | 1.0 | 5.0 | 0.03 | 0.82 | 0.82 | 93 | 1015.4 |
| 20260506021811 | 33 | 0 | 1.0 | 3.0 | 0.03 | 0.82 | 0.82 | 93 | 1015.4 |
| 20260506021312 | 33 | 291 | 1.0 | 4.0 | 0.02 | 0.81 | 0.81 | 93 | 1015.3 |
| 20260506020811 | 33 | 290 | 2.0 | 4.0 | 0.02 | 0.81 | 0.81 | 93 | 1015.2 |
| 20260506020313 | 33 | 0 | 2.0 | 4.0 | 0.02 | 0.81 | 0.81 | 93 | 1015.2 |
| 20260506015811 | 33 | 0 | 2.0 | 4.0 | 0.02 | 0.81 | 0.81 | 93 | 1015.2 |
| 20260506015311 | 33 | 292 | 2.0 | 4.0 | 0.01 | 0.80 | 0.81 | 93 | 1015.2 |
| 20260506014809 | 33 | 0 | 1.0 | 4.0 | 0.01 | 0.80 | 0.80 | 93 | 1015.1 |
| 20260506014309 | 32 | 291 | 2.0 | 4.0 | 0.01 | 0.80 | 0.80 | 93 | 1015.1 |
| 20260506013809 | 32 | 290 | 2.0 | 4.0 | 0.01 | 0.80 | 0.80 | 93 | 1015.1 |
| 20260506013310 | 32 | 292 | 1.0 | 3.0 | 0.00 | 0.79 | 0.80 | 93 | 1014.9 |
| 20260506012809 | 32 | 0 | 0.0 | 2.0 | 0.00 | 0.79 | 0.79 | 93 | 1014.7 |
| 20260506012311 | 32 | 292 | 0.0 | 3.0 | 0.00 | 0.79 | 0.79 | 93 | 1014.6 |
| 20260506011809 | 32 | 291 | 1.0 | 3.0 | 0.00 | 0.79 | 0.79 | 93 | 1014.6 |
| 20260506011307 | 32 | 0 | 1.0 | 4.0 | 0.00 | 0.79 | 0.79 | 93 | 1014.6 |
| 20260506010808 | 32 | 0 | 0.0 | 4.0 | 0.00 | 0.79 | 0.79 | 93 | 1014.6 |
| 20260506010307 | 32 | 0 | 0.0 | 0.0 | 0.00 | 0.79 | 0.79 | 93 | 1014.6 |
| 20260506005808 | 32 | 291 | 0.0 | 3.0 | 0.01 | 0.79 | 0.79 | 93 | 1014.7 |
| 20260506005308 | 32 | 0 | 1.0 | 4.0 | 0.01 | 0.79 | 0.79 | 93 | 1014.7 |
| 20260506004809 | 32 | 0 | 1.0 | 4.0 | 0.01 | 0.79 | 0.79 | 93 | 1014.6 |
| 20260506004310 | 32 | 292 | 1.0 | 4.0 | 0.01 | 0.80 | 0.79 | 93 | 1014.6 |
| 20260506003807 | 32 | 292 | 2.0 | 4.0 | 0.01 | 0.80 | 0.79 | 93 | 1014.6 |
| 20260506003308 | 32 | 0 | 2.0 | 4.0 | 0.01 | 0.80 | 0.79 | 93 | 1014.6 |
| 20260506002808 | 32 | 0 | 2.0 | 5.0 | 0.01 | 0.81 | 0.79 | 93 | 1014.6 |
| 20260506002307 | 32 | 292 | 2.0 | 5.0 | 0.01 | 0.81 | 0.79 | 93 | 1014.6 |
| 20260506001809 | 32 | 0 | 2.0 | 5.0 | 0.01 | 0.82 | 0.79 | 93 | 1014.6 |
| 20260506001307 | 32 | 293 | 2.0 | 5.0 | 0.01 | 0.82 | 0.79 | 93 | 1014.5 |
| 20260506000806 | 32 | 302 | 2.0 | 5.0 | 0.01 | 0.83 | 0.79 | 93 | 1014.5 |
| 20260506000309 | 32 | 0 | 2.0 | 5.0 | 0.01 | 0.83 | 0.79 | 93 | 1014.4 |
| 20260505235808 | 32 | 302 | 0.0 | 4.0 | 0.00 | 0.82 | 0.78 | 93 | 1014.4 |
| 20260505235307 | 32 | 0 | 0.0 | 3.0 | 0.00 | 0.82 | 0.78 | 93 | 1014.2 |
| 20260505235037 | 32 | 0 | 0.0 | 3.0 | 0.01 | 0.82 | 0.78 | 93 | 1014.2 |
| 20260505234537 | 32 | 301 | 0.0 | 3.0 | 0.01 | 0.82 | 0.78 | 93 | 1014.3 |
| 20260505233805 | 32 | 0 | 1.0 | 3.0 | 0.01 | 0.82 | 0.78 | 93 | 1014.3 |
| 20260505233305 | 32 | 0 | 1.0 | 4.0 | 0.02 | 0.82 | 0.78 | 93 | 1014.3 |
| 20260505232805 | 32 | 298 | 1.0 | 4.0 | 0.02 | 0.82 | 0.78 | 92 | 1014.4 |
| 20260505232305 | 33 | 0 | 2.0 | 3.0 | 0.02 | 0.82 | 0.78 | 92 | 1014.4 |
| 20260505231806 | 33 | 0 | 2.0 | 3.0 | 0.03 | 0.82 | 0.78 | 92 | 1014.4 |
| 20260505231306 | 33 | 0 | 1.0 | 4.0 | 0.03 | 0.82 | 0.78 | 92 | 1014.4 |
| 20260505230806 | 33 | 0 | 1.0 | 4.0 | 0.03 | 0.82 | 0.78 | 92 | 1014.4 |
| 20260505230305 | 33 | 0 | 1.0 | 3.0 | 0.04 | 0.82 | 0.78 | 92 | 1014.4 |
| 20260505225804 | 33 | 0 | 1.0 | 3.0 | 0.05 | 0.82 | 0.78 | 92 | 1014.4 |
| 20260505225306 | 33 | 292 | 1.0 | 2.0 | 0.05 | 0.82 | 0.78 | 92 | 1014.4 |
| 20260505224804 | 33 | 0 | 0.0 | 3.0 | 0.05 | 0.81 | 0.77 | 92 | 1014.3 |
| 20260505224536 | 33 | 0 | 1.0 | 3.0 | 0.05 | 0.81 | 0.77 | 92 | 1014.2 |